Location: ????
(55.5675°N, 37.6272°E)
Time: 02:03:11
(UTC+00:00)

CZ-4C R/B - Pass Details

Date: 14 April 2026
Orbit: 475 x 1502 km, 63.4° (Epoch: 20 May)

Event Time Altitude Azimuth Distance (km) Brightness Sun altitude
Exits shadow 23:46:54 18° 155° (SSE) 1,551 3.3 -18.8°
Maximum altitude 23:48:58 25° 116° (ESE) 1,371 3.4 -18.6°
Drops below altitude 10° 23:53:14 10° 63° (ENE) 2,375 5.5 -18.2°
Sets 23:56:23 0° 51° (NE) 3,510 6.9 -17.9°
